Wind_Speed
16 20 19 19 19 19 16 15 14 13 13 13 11 11 12 11 11 10 10 10 10 8 7 6 5 5 4 5 5 6 6 6 9 9 10 12 15 16 17 16 12 10 12
17 23 21 19 19 18 16 14 13 12 11 12 11 10 12 10 9 9 10 10 10 7 6 5 4 4 5 5 5 5 6 8 9 10 11 11 12 14 14 14 13 9 11
20 25 22 20 18 17 15 13 11 10 10 10 9 10 10 10 8 8 9 9 8 7 5 6 5 5 4 4 5 6 8 11 10 15 15 11 9 12 11 13 5 8 11
22 23 21 19 17 15 13 11 10 10 9 9 9 9 8 8 7 7 8 6 6 4 4 4 5 4 3 3 6 7 10 13 10 14 16 6 8 9 10 7 8 9 11
20 19 21 18 15 14 12 11 11 10 9 8 8 8 7 7 7 7 6 6 4 2 4 3 4 3 2 3 6 6 12 12 7 12 15 14 3 5 7 8 8 10 10
23 15 19 17 15 13 11 10 10 9 8 8 8 7 7 7 7 6 5 5 4 3 4 3 3 3 3 5 6 6 13 11 13 12 9 10 2 4 4 8 9 10 9
23 13 17 16 14 12 11 11 9 9 8 7 7 7 7 6 6 6 5 4 4 4 5 4 4 3 3 6 7 7 12 10 14 11 10 6 2 3 1 5 8 7 6
17 14 15 16 13 11 11 11 10 8 8 7 6 6 6 6 5 4 4 3 4 4 4 4 3 4 4 7 9 8 10 11 6 9 7 3 3 4 4 5 7 6 6
11 7 17 15 14 12 10 9 9 8 6 6 6 5 5 4 4 4 3 3 2 3 4 5 5 4 5 8 11 10 11 10 6 10 6 5 6 4 5 7 6 6 6
14 4 9 12 13 12 10 9 8 7 7 6 5 6 4 3 1 1 1 3 1 3 3 5 6 7 7 8 10 12 12 12 12 13 5 7 6 2 3 6 6 6 5
17 12 9 7 9 9 8 9 9 8 8 6 5 4 2 3 4 2 3 3 5 5 3 3 4 7 8 9 9 9 12 13 10 8 5 7 7 6 5 5 5 6 5
12 15 13 14 12 13 9 9 10 9 8 6 5 6 5 4 10 5 7 7 9 6 4 4 5 7 10 9 11 12 13 15 8 11 13 9 6 6 6 6 5 6 6
16 15 15 14 14 15 14 11 11 10 9 10 11 9 8 8 7 7 13 12 8 5 5 3 7 9 10 13 12 8 11 11 17 7 5 12 9 5 6 7 8 7 6
18 16 14 15 14 12 15 15 11 12 10 13 14 13 11 12 14 15 7 9 7 8 6 10 10 6 9 9 11 9 10 10 10 9 14 11 6 6 8 8 10 9 7
13 11 14 14 15 10 16 10 10 7 10 7 12 12 13 16 12 16 18 14 6 8 12 12 12 9 13 15 10 10 10 13 13 17 14 9 8 8 11 11 12 12 12
16 15 17 18 18 14 16 16 16 13 15 16 11 10 11 12 14 17 18 20 16 16 17 19 16 6 16 15 8 10 16 15 14 13 17 11 14 12 12 15 16 16 16
15 15 17 16 15 16 17 14 11 10 10 11 8 14 17 16 17 20 18 19 21 19 18 19 18 17 15 11 12 13 11 12 13 14 13 18 15 15 15 13 14 16 16
14 17 17 11 15 16 13 11 9 9 13 8 11 14 16 21 17 17 20 16 13 12 20 16 18 14 12 13 14 14 15 13 14 14 13 12 18 17 16 14 15 15 17
15 17 17 13 19 12 7 7 9 11 12 11 12 11 14 16 19 17 20 15 14 16 14 17 18 16 14 15 18 16 19 18 16 19 15 14 16 19 17 18 18 12 16
15 15 17 23 15 6 4 18 20 14 13 12 10 9 12 15 19 18 22 23 20 20 20 21 20 20 20 23 16 12 17 20 16 16 14 18 20 19 20 17 17 17 20
12 17 18 13 21 9 5 26 10 12 8 6 10 14 14 19 18 23 23 22 21 24 23 21 23 20 16 18 12 10 17 16 18 19 17 16 16 16 21 22 23 23 23
10 12 16 11 10 9 4 8 24 7 5 2 9 12 11 13 15 17 19 20 21 22 23 25 24 19 17 19 15 14 11 13 17 16 14 18 14 11 15 15 14 17 21
9 11 15 11 9 6 4 8 6 6 4 3 4 6 7 10 14 16 17 20 20 19 22 22 23 24 28 24 20 13 8 8 7 18 20 18 14 14 6 13 15 11 13
9 9 12 4 6 4 4 3 3 3 2 2 1 8 9 9 13 14 14 14 16 17 18 19 20 21 23 26 21 19 18 8 6 2 11 10 16 13 12 11 13 16 14
11 8 8 7 6 7 5 4 4 3 4 4 3 7 9 10 6 12 17 13 15 16 15 16 17 19 21 24 22 20 16 14 16 11 2 5 10 14 11 10 12 13 8
12 11 9 8 8 6 5 3 4 4 5 3 5 6 5 7 12 14 13 11 11 11 12 15 13 15 18 21 23 24 19 12 17 12 16 9 6 4 4 11 5 11 3
Wind_Direction
147 150 140 131 128 133 132 128 125 122 114 114 110 112 117 119 116 116 123 123 119 117 112 103 96 90 80 94 83 99 117 115 117 118 115 111 104 106 102 94 75 105 104
158 152 141 134 134 134 136 135 132 128 119 120 118 118 120 121 114 122 131 122 116 107 98 99 99 99 87 96 82 106 107 102 98 105 99 106 109 115 113 110 144 103 107
141 148 140 135 133 136 137 134 132 131 123 121 124 121 123 120 117 126 129 126 117 109 93 97 94 86 93 100 103 113 105 95 106 111 86 65 111 123 119 124 124 106 105
141 143 144 138 137 133 132 134 137 139 135 132 137 131 129 120 120 130 129 123 111 100 92 92 94 89 99 107 127 123 105 116 123 123 126 103 83 123 126 122 123 104 108
132 147 145 143 138 135 137 139 142 142 140 140 140 137 133 130 131 135 136 134 109 109 100 94 88 88 104 124 145 128 119 125 113 81 103 135 343 102 111 111 121 116 114
143 162 148 145 142 139 138 137 141 144 147 147 145 144 139 139 133 138 128 124 148 141 127 125 95 69 73 141 153 140 131 133 106 83 99 145 178 79 120 126 127 130 129
158 142 151 148 144 143 141 140 144 146 145 147 144 141 138 133 130 128 132 133 132 145 142 144 135 97 87 147 151 142 144 153 109 108 122 181 228 291 255 138 143 147 148
170 168 166 154 151 150 147 145 146 150 146 146 150 149 146 141 144 141 137 136 144 150 154 152 159 133 128 165 170 152 155 138 153 131 214 197 259 314 226 161 156 151 156
156 152 171 163 158 156 154 155 150 148 154 158 164 169 173 172 164 153 150 155 183 174 176 166 169 164 168 172 175 162 161 177 139 150 218 201 278 289 206 172 160 157 153
144 132 172 170 167 166 166 169 167 166 168 178 182 183 188 187 76 230 204 174 225 220 191 174 177 192 184 181 182 185 170 184 158 149 211 247 223 312 236 180 171 170 173
155 151 167 199 181 170 183 188 190 190 196 200 206 204 172 164 5 349 208 310 276 261 247 185 196 206 193 191 195 184 186 178 173 208 214 223 277 275 232 193 186 182 185
162 168 189 197 198 189 185 202 212 214 219 218 221 201 190 224 236 238 257 282 296 260 253 235 214 216 206 199 197 210 198 185 193 243 233 216 236 260 228 214 204 199 198
202 207 193 196 205 205 187 207 208 212 206 213 215 232 197 215 199 242 260 267 273 249 250 227 279 236 224 211 223 214 211 206 190 198 229 221 224 255 238 218 218 217 208
189 207 212 211 219 217 206 212 206 211 214 222 229 237 233 230 214 214 225 229 237 250 229 226 245 222 232 239 233 224 231 207 194 223 225 220 221 245 252 232 225 224 224
188 199 201 209 210 207 209 210 203 216 216 263 233 250 252 244 227 238 220 213 226 246 233 248 232 227 245 232 244 236 246 220 190 219 232 233 235 238 240 243 232 226 222
188 193 190 194 212 216 227 213 214 209 209 242 229 273 260 269 255 256 249 245 245 253 251 238 222 216 230 237 244 230 243 244 226 228 212 243 239 240 243 247 240 229 230
187 196 206 205 221 223 237 223 224 214 222 232 240 245 262 262 268 259 268 265 254 268 243 251 236 270 235 244 261 256 239 260 261 234 217 210 237 239 236 245 240 244 245
194 198 203 204 211 235 241 225 229 207 228 222 234 240 235 257 273 263 270 275 284 263 234 257 265 265 239 243 242 250 245 246 248 256 245 226 218 241 249 245 250 248 251
204 203 203 206 203 182 224 234 236 216 228 216 248 243 264 269 275 262 271 271 264 273 230 237 246 247 234 234 243 240 244 244 233 245 245 220 227 228 241 260 257 269 252
205 215 205 218 244 317 125 322 236 218 208 222 251 252 269 264 267 268 270 269 255 247 254 242 234 239 241 245 247 261 235 240 250 261 251 235 232 225 229 244 251 250 246
218 226 220 234 256 278 227 298 239 212 225 215 237 255 253 264 277 278 273 265 261 258 260 255 242 247 236 243 245 235 238 247 240 266 254 252 246 240 231 240 256 248 251
218 239 242 252 242 196 82 156 175 228 247 222 230 273 283 290 294 289 284 276 268 263 258 256 249 248 244 216 248 263 247 239 240 243 244 257 243 251 255 257 266 257 258
215 219 248 253 225 247 206 201 179 207 193 238 249 329 283 298 299 293 288 285 283 272 266 258 255 248 248 237 230 233 224 218 250 237 237 252 242 238 228 250 268 255 256
196 209 238 193 188 240 169 134 155 74 128 245 32 276 304 332 342 333 315 296 291 282 269 265 255 250 247 243 233 224 242 227 217 214 224 243 219 241 239 268 258 253 258
177 189 178 183 193 172 171 133 119 104 51 309 291 356 339 330 331 316 322 303 306 291 271 261 257 247 242 239 231 225 228 240 247 250 262 257 251 243 247 270 274 261 307
180 175 179 172 179 169 155 198 196 209 201 216 15 352 31 322 317 324 334 323 318 311 283 264 253 251 244 240 236 233 241 244 212 243 245 251 240 284 216 244 324 275 274
Height
1526 1527 1530 1532 1535 1537 1540 1542 1544 1546 1548 1549 1551 1552 1554 1556 1557 1558 1560 1562 1563 1564 1565 1566 1568 1568 1569 1570 1570 1571 1572 1572 1572 1573 1574 1575 1576 1577 1578 1579 1581 1580 1580
1524 1528 1532 1534 1536 1539 1541 1543 1546 1547 1549 1550 1553 1554 1556 1558 1559 1561 1562 1563 1564 1566 1567 1568 1569 1570 1570 1571 1571 1572 1573 1574 1574 1574 1576 1577 1577 1579 1580 1581 1582 1582 1582
1526 1530 1533 1536 1539 1541 1543 1545 1548 1549 1551 1552 1555 1556 1558 1559 1560 1562 1563 1565 1566 1567 1568 1569 1569 1571 1571 1572 1572 1573 1574 1575 1575 1575 1576 1577 1579 1581 1581 1582 1584 1584 1584
1528 1532 1535 1538 1540 1542 1545 1547 1549 1551 1553 1554 1556 1557 1559 1560 1562 1564 1565 1566 1566 1569 1568 1570 1571 1571 1572 1573 1574 1574 1576 1576 1577 1577 1578 1582 1581 1583 1584 1584 1585 1586 1587
1533 1535 1536 1539 1542 1544 1546 1548 1550 1552 1553 1556 1557 1559 1560 1561 1563 1565 1566 1567 1568 1569 1570 1571 1572 1572 1572 1573 1575 1576 1577 1578 1578 1579 1580 1583 1584 1585 1585 1586 1586 1587 1588
1535 1536 1538 1541 1544 1545 1548 1550 1552 1553 1555 1556 1558 1559 1560 1562 1563 1565 1566 1567 1568 1569 1570 1570 1572 1571 1572 1573 1574 1577 1578 1579 1580 1581 1582 1585 1586 1587 1587 1588 1588 1589 1590
1534 1538 1540 1542 1545 1547 1548 1551 1553 1554 1555 1557 1558 1559 1561 1562 1564 1565 1566 1567 1567 1569 1569 1569 1570 1571 1572 1573 1574 1577 1579 1580 1580 1583 1584 1586 1586 1587 1588 1589 1590 1590 1591
1534 1538 1541 1543 1546 1548 1550 1551 1553 1556 1556 1558 1559 1560 1561 1562 1564 1566 1566 1566 1567 1568 1568 1569 1569 1570 1571 1572 1573 1576 1579 1580 1581 1582 1584 1584 1585 1586 1588 1589 1590 1591 1592
1536 1538 1541 1544 1546 1548 1551 1552 1553 1555 1557 1559 1560 1561 1562 1562 1564 1565 1566 1567 1566 1566 1567 1567 1568 1568 1569 1571 1571 1573 1577 1579 1579 1581 1583 1583 1584 1586 1587 1588 1590 1592 1593
1537 1537 1541 1543 1545 1548 1550 1552 1554 1555 1556 1558 1560 1561 1562 1563 1564 1565 1566 1566 1566 1566 1566 1565 1566 1566 1567 1569 1571 1573 1574 1576 1578 1582 1584 1584 1584 1584 1586 1588 1590 1592 1593
1538 1539 1541 1544 1546 1548 1550 1552 1553 1554 1556 1557 1558 1560 1561 1562 1562 1562 1564 1564 1565 1565 1566 1566 1566 1566 1567 1568 1569 1571 1571 1573 1578 1583 1587 1589 1589 1585 1584 1587 1589 1591 1593
1539 1541 1542 1544 1546 1547 1548 1551 1553 1554 1555 1556 1557 1558 1559 1561 1562 1562 1562 1564 1565 1565 1566 1567 1566 1567 1567 1568 1568 1570 1569 1571 1577 1583 1581 1586 1587 1586 1584 1585 1589 1591 1592
1538 1540 1544 1546 1546 1547 1548 1549 1550 1552 1554 1555 1556 1557 1559 1559 1559 1563 1562 1563 1564 1564 1565 1566 1566 1565 1566 1567 1568 1569 1568 1570 1573 1580 1581 1585 1585 1583 1583 1584 1588 1590 1591
1535 1538 1542 1544 1544 1546 1547 1548 1548 1550 1552 1553 1555 1556 1557 1557 1558 1560 1561 1562 1562 1564 1564 1564 1561 1562 1565 1566 1566 1568 1567 1568 1570 1575 1576 1580 1579 1578 1581 1583 1586 1587 1589
1534 1537 1539 1542 1544 1545 1547 1548 1549 1550 1551 1551 1552 1553 1554 1555 1556 1557 1558 1559 1561 1562 1560 1557 1562 1569 1564 1567 1563 1565 1567 1567 1568 1569 1569 1569 1572 1575 1579 1582 1584 1584 1585
1533 1536 1539 1541 1544 1545 1546 1547 1547 1549 1549 1549 1547 1550 1552 1552 1553 1554 1555 1557 1559 1558 1556 1553 1560 1544 1570 1568 1561 1564 1567 1566 1567 1567 1568 1568 1570 1573 1577 1579 1582 1583 1582
1532 1534 1537 1540 1544 1546 1547 1548 1547 1549 1548 1547 1549 1550 1550 1550 1551 1550 1550 1552 1553 1553 1550 1548 1556 1559 1560 1556 1560 1564 1565 1566 1564 1566 1567 1569 1570 1572 1575 1577 1580 1583 1584
1530 1533 1537 1540 1541 1542 1545 1547 1550 1549 1551 1551 1550 1549 1547 1547 1548 1548 1548 1548 1549 1548 1547 1545 1544 1545 1547 1555 1559 1562 1563 1566 1564 1563 1564 1565 1568 1570 1573 1575 1577 1579 1582
1530 1532 1536 1541 1534 1537 1545 1547 1549 1549 1548 1548 1550 1549 1545 1544 1543 1544 1545 1545 1547 1545 1545 1545 1543 1545 1550 1553 1555 1556 1558 1562 1562 1560 1561 1562 1564 1567 1569 1571 1573 1575 1575
1529 1530 1534 1529 1529 1525 1533 1537 1528 1544 1546 1547 1546 1547 1545 1541 1541 1541 1541 1541 1542 1543 1541 1541 1544 1548 1553 1551 1550 1548 1553 1557 1556 1556 1556 1558 1560 1562 1564 1565 1568 1570 1571
1528 1528 1525 1532 1528 1528 1543 1534 1531 1541 1543 1543 1545 1545 1542 1538 1538 1536 1535 1536 1537 1536 1538 1537 1538 1544 1539 1535 1548 1548 1549 1550 1552 1552 1553 1554 1555 1556 1559 1561 1563 1564 1565
1527 1525 1524 1527 1530 1536 1539 1534 1526 1536 1542 1541 1544 1542 1540 1535 1533 1531 1530 1530 1531 1531 1531 1530 1535 1540 1540 1544 1547 1546 1545 1548 1547 1548 1549 1550 1551 1552 1554 1557 1558 1558 1561
1525 1525 1524 1527 1531 1533 1535 1538 1532 1541 1542 1542 1541 1540 1535 1532 1531 1529 1527 1526 1525 1525 1525 1525 1527 1530 1533 1535 1537 1542 1543 1542 1543 1545 1546 1548 1548 1549 1553 1554 1555 1557 1557
1523 1522 1522 1525 1528 1531 1534 1531 1537 1539 1542 1540 1539 1536 1534 1531 1530 1527 1525 1523 1521 1520 1521 1521 1523 1523 1524 1527 1534 1537 1544 1541 1539 1543 1544 1546 1547 1547 1551 1553 1552 1552 1553
1522 1521 1521 1524 1527 1529 1528 1531 1532 1535 1536 1536 1536 1534 1533 1532 1530 1527 1524 1521 1519 1518 1517 1517 1519 1519 1520 1524 1531 1533 1538 1537 1537 1541 1542 1543 1545 1549 1552 1552 1550 1551 1550
1521 1523 1523 1523 1525 1527 1529 1530 1531 1533 1534 1534 1534 1535 1534 1533 1530 1525 1523 1520 1518 1516 1515 1514 1515 1517 1519 1520 1524 1530 1531 1531 1533 1537 1541 1543 1545 1546 1547 1553 1552 1548 1537